| time (UTC) | temp C | wind direction | speed KPH | gust KPH | rain 1hr cm | rain 24hr cm | rain mn cm | humidity % | barometer mb |
| 20260906133037 | 16 | 58 | 11.3 | 0.0 | 0.00 | 0.00 | 0.00 | 87 | 991.4 |
| 20260906131539 | 15 | 57 | 11.3 | 0.0 | 0.00 | 0.00 | 0.00 | 87 | 991.4 |
| 20260906130037 | 15 | 57 | 12.9 | 0.0 | 0.00 | 0.00 | 0.00 | 87 | 991.4 |
| 20260906124541 | 15 | 58 | 11.3 | 0.0 | 0.00 | 0.00 | 0.00 | 93 | 991.2 |
| 20260906123049 | 14 | 57 | 11.3 | 0.0 | 0.00 | 0.00 | 0.00 | 93 | 991.2 |
| 20260906121540 | 13 | 55 | 11.3 | 0.0 | 0.00 | 0.00 | 0.00 | 93 | 991.2 |
| 20260906120038 | 13 | 54 | 11.3 | 0.0 | 0.00 | 0.00 | 0.00 | 93 | 991.2 |
| 20260906114542 | 12 | 53 | 9.7 | 0.0 | 0.00 | 0.00 | 0.00 | 90 | 989.6 |
| 20260906113041 | 12 | 46 | 9.7 | 0.0 | 0.00 | 0.00 | 0.00 | 87 | 991.0 |
| 20260906111541 | 13 | 58 | 8.0 | 0.0 | 0.00 | 0.00 | 0.00 | 87 | 991.0 |
| 20260906110043 | 13 | 58 | 8.0 | 0.0 | 0.00 | 0.00 | 0.00 | 87 | 991.0 |
| 20260906104541 | 13 | 53 | 8.0 | 0.0 | 0.00 | 0.00 | 0.00 | 82 | 990.2 |
| 20260906103044 | 13 | 50 | 8.0 | 0.0 | 0.00 | 0.00 | 0.00 | 85 | 991.0 |
| 20260906101538 | 13 | 50 | 8.0 | 0.0 | 0.00 | 0.00 | 0.00 | 85 | 990.9 |
| 20260906100047 | 13 | 53 | 8.0 | 0.0 | 0.00 | 0.00 | 0.00 | 85 | 990.9 |
| 20260906094543 | 13 | 54 | 8.0 | 0.0 | 0.00 | 0.00 | 0.00 | 86 | 990.2 |
| 20260906093044 | 13 | 48 | 8.0 | 0.0 | 0.00 | 0.00 | 0.00 | 84 | 990.9 |
| 20260906091541 | 13 | 53 | 8.0 | 0.0 | 0.00 | 0.00 | 0.00 | 84 | 990.9 |
| 20260906090046 | 13 | 57 | 9.7 | 0.0 | 0.00 | 0.00 | 0.00 | 84 | 990.9 |
| 20260906084543 | 14 | 58 | 9.7 | 0.0 | 0.00 | 0.00 | 0.00 | 85 | 989.8 |
| 20260906083041 | 14 | 57 | 9.7 | 0.0 | 0.00 | 0.00 | 0.00 | 79 | 990.3 |
| 20260906081539 | 15 | 59 | 11.3 | 0.0 | 0.00 | 0.00 | 0.00 | 77 | 990.1 |
| 20260906080100 | 15 | 61 | 9.7 | 0.0 | 0.00 | 0.00 | 0.00 | 77 | 990.1 |
| 20260906074541 | 15 | 61 | 9.7 | 0.0 | 0.00 | 0.00 | 0.00 | 79 | 989.2 |
| 20260906073041 | 15 | 62 | 9.7 | 0.0 | 0.00 | 0.00 | 0.00 | 79 | 989.2 |
| 20260906071543 | 15 | 66 | 9.7 | 0.0 | 0.00 | 0.00 | 0.00 | 79 | 989.2 |
| 20260906070044 | 16 | 68 | 9.7 | 0.0 | 0.00 | 0.00 | 0.00 | 79 | 989.2 |
| 20260906064554 | 16 | 71 | 9.7 | 0.0 | 0.00 | 0.00 | 0.00 | 78 | 988.8 |
| 20260906063048 | 16 | 68 | 9.7 | 0.0 | 0.00 | 0.00 | 0.00 | 74 | 989.2 |
| 20260906061541 | 16 | 68 | 9.7 | 0.0 | 0.00 | 0.00 | 0.00 | 74 | 989.2 |
| 20260906060046 | 16 | 69 | 9.7 | 0.0 | 0.00 | 0.00 | 0.00 | 74 | 989.2 |
| 20260906054542 | 16 | 72 | 9.7 | 0.0 | 0.00 | 0.00 | 0.00 | 72 | 989.4 |
| 20260906053039 | 16 | 68 | 9.7 | 0.0 | 0.00 | 0.00 | 0.00 | 70 | 989.1 |
| 20260906051542 | 17 | 70 | 8.0 | 0.0 | 0.00 | 0.00 | 0.00 | 70 | 989.1 |
| 20260906050045 | 17 | 70 | 8.0 | 0.0 | 0.00 | 0.00 | 0.00 | 70 | 989.1 |
| 20260906044542 | 17 | 71 | 9.7 | 0.0 | 0.00 | 0.00 | 0.00 | 73 | 989.0 |
| 20260906043047 | 17 | 65 | 9.7 | 0.0 | 0.00 | 0.00 | 0.00 | 70 | 988.8 |
| 20260906041541 | 17 | 63 | 9.7 | 0.0 | 0.00 | 0.00 | 0.00 | 70 | 988.8 |
| 20260906040038 | 18 | 62 | 9.7 | 0.0 | 0.00 | 0.00 | 0.00 | 70 | 988.8 |
| 20260906034537 | 18 | 64 | 9.7 | 0.0 | 0.00 | 0.00 | 0.00 | 72 | 988.7 |
| 20260906033045 | 18 | 63 | 9.7 | 0.0 | 0.00 | 0.00 | 0.00 | 75 | 989.1 |
| 20260906031541 | 18 | 62 | 11.3 | 0.0 | 0.00 | 0.00 | 0.00 | 75 | 989.1 |
| 20260906030043 | 19 | 61 | 9.7 | 0.0 | 0.00 | 0.00 | 0.00 | 75 | 989.1 |
| 20260906024541 | 19 | 56 | 9.7 | 0.0 | 0.00 | 0.00 | 0.00 | 71 | 987.8 |
| 20260906023038 | 20 | 58 | 11.3 | 0.0 | 0.00 | 0.00 | 0.00 | 73 | 988.2 |
| 20260906021538 | 20 | 58 | 11.3 | 0.0 | 0.00 | 0.00 | 0.00 | 73 | 988.2 |
| 20260906020037 | 20 | 57 | 11.3 | 0.0 | 0.00 | 0.00 | 0.00 | 73 | 988.2 |
| 20260906015049 | 20 | 53 | 11.3 | 0.0 | 0.00 | 0.00 | 0.00 | 70 | 987.5 |
| 20260906013040 | 20 | 49 | 9.7 | 0.0 | 0.00 | 0.00 | 0.00 | 70 | 987.5 |
| 20260906011540 | 20 | 55 | 12.9 | 0.0 | 0.00 | 0.00 | 0.00 | 70 | 987.5 |
| 20260906010051 | 21 | 54 | 12.9 | 0.0 | 0.00 | 0.00 | 0.00 | 70 | 987.5 |
| 20260906004539 | 21 | 56 | 9.7 | 0.0 | 0.00 | 0.00 | 0.00 | 74 | 987.5 |
| 20260906003047 | 21 | 38 | 8.0 | 0.0 | 0.00 | 0.00 | 0.00 | 71 | 987.5 |
| 20260906001539 | 21 | 38 | 8.0 | 0.0 | 0.00 | 0.00 | 0.00 | 71 | 987.5 |
| 20260906000048 | 22 | 33 | 8.0 | 0.0 | 0.00 | 0.00 | 0.00 | 71 | 987.5 |
| 20260905234544 | 22 | 34 | 8.0 | 0.0 | 0.00 | 0.00 | 0.00 | 65 | 987.5 |
| 20260905233041 | 22 | 43 | 8.0 | 0.0 | 0.00 | 0.00 | 0.00 | 65 | 987.5 |
| 20260905231544 | 23 | 48 | 9.7 | 0.0 | 0.00 | 0.00 | 0.00 | 65 | 987.5 |
| 20260905230044 | 23 | 52 | 9.7 | 0.0 | 0.00 | 0.00 | 0.00 | 65 | 987.5 |
| 20260905224544 | 24 | 53 | 11.3 | 0.0 | 0.00 | 0.00 | 0.00 | 70 | 987.2 |
| 20260905223040 | 24 | 54 | 12.9 | 0.0 | 0.00 | 0.00 | 0.00 | 70 | 987.6 |
| 20260905221540 | 24 | 55 | 11.3 | 0.0 | 0.00 | 0.00 | 0.00 | 70 | 987.6 |
| 20260905220040 | 24 | 55 | 11.3 | 0.0 | 0.00 | 0.00 | 0.00 | 70 | 987.6 |
| 20260905214544 | 24 | 58 | 12.9 | 0.0 | 0.00 | 0.00 | 0.00 | 71 | 987.5 |
| 20260905213045 | 24 | 68 | 11.3 | 0.0 | 0.00 | 0.00 | 0.00 | 73 | 987.9 |
| 20260905211541 | 23 | 61 | 9.7 | 0.0 | 0.00 | 0.00 | 0.00 | 73 | 987.9 |
| 20260905210046 | 23 | 60 | 12.9 | 0.0 | 0.00 | 0.00 | 0.00 | 73 | 987.9 |
| 20260905204544 | 23 | 59 | 12.9 | 0.0 | 0.00 | 0.00 | 0.00 | 79 | 986.9 |
| 20260905203044 | 23 | 56 | 14.5 | 0.0 | 0.00 | 0.00 | 0.00 | 80 | 987.3 |
| 20260905201543 | 23 | 54 | 12.9 | 0.0 | 0.00 | 0.00 | 0.00 | 80 | 987.2 |
| 20260905200050 | 22 | 49 | 12.9 | 0.0 | 0.00 | 0.00 | 0.00 | 80 | 987.2 |
| 20260905194544 | 22 | 47 | 12.9 | 0.0 | 0.00 | 0.00 | 0.00 | 77 | 987.4 |
| 20260905193044 | 22 | 46 | 14.5 | 0.0 | 0.00 | 0.00 | 0.00 | 77 | 987.4 |
| 20260905191540 | 22 | 42 | 9.7 | 0.0 | 0.00 | 0.00 | 0.00 | 77 | 987.4 |
| 20260905190053 | 22 | 49 | 9.7 | 0.0 | 0.00 | 0.00 | 0.00 | 77 | 987.4 |
| 20260905184544 | 22 | 57 | 9.7 | 0.0 | 0.00 | 0.00 | 0.00 | 81 | 988.2 |
| 20260905183044 | 23 | 56 | 11.3 | 0.0 | 0.00 | 0.00 | 0.00 | 79 | 988.1 |
| 20260905181543 | 23 | 50 | 9.7 | 0.0 | 0.00 | 0.00 | 0.00 | 79 | 988.1 |
| 20260905180046 | 23 | 48 | 9.7 | 0.0 | 0.00 | 0.00 | 0.00 | 79 | 988.1 |
| 20260905174544 | 23 | 56 | 11.3 | 0.0 | 0.00 | 0.00 | 0.00 | 79 | 988.4 |
| 20260905173045 | 22 | 66 | 11.3 | 0.0 | 0.00 | 0.00 | 0.00 | 79 | 987.6 |
| 20260905171544 | 23 | 74 | 9.7 | 0.0 | 0.00 | 0.00 | 0.00 | 79 | 987.7 |
| 20260905170053 | 23 | 82 | 9.7 | 0.0 | 0.00 | 0.00 | 0.00 | 79 | 987.7 |
| 20260905164544 | 23 | 80 | 9.7 | 0.0 | 0.00 | 0.00 | 0.00 | 85 | 988.1 |
| 20260905163044 | 23 | 75 | 9.7 | 0.0 | 0.00 | 0.00 | 0.00 | 81 | 987.1 |
| 20260905161541 | 23 | 86 | 9.7 | 0.0 | 0.00 | 0.00 | 0.00 | 81 | 987.1 |
| 20260905160040 | 23 | 86 | 9.7 | 0.0 | 0.00 | 0.00 | 0.00 | 81 | 987.1 |
| 20260905154540 | 22 | 88 | 9.7 | 0.0 | 0.00 | 0.00 | 0.00 | 86 | 988.3 |
| 20260905153044 | 22 | 81 | 11.3 | 0.0 | 0.00 | 0.00 | 0.00 | 86 | 987.0 |
| 20260905151541 | 22 | 63 | 12.9 | 0.0 | 0.00 | 0.00 | 0.00 | 86 | 987.0 |
| 20260905150040 | 21 | 71 | 12.9 | 0.0 | 0.00 | 0.00 | 0.00 | 86 | 987.0 |
| 20260905144554 | 21 | 73 | 11.3 | 0.0 | 0.00 | 0.00 | 0.00 | 89 | 987.6 |
| 20260905143037 | 21 | 67 | 11.3 | 0.0 | 0.00 | 0.00 | 0.00 | 87 | 987.2 |
| 20260905141543 | 22 | 56 | 12.9 | 0.0 | 0.00 | 0.00 | 0.00 | 87 | 987.2 |
| 20260905140044 | 21 | 58 | 12.9 | 0.0 | 0.00 | 0.00 | 0.00 | 87 | 987.2 |
| 20260905134543 | 21 | 58 | 12.9 | 0.0 | 0.00 | 0.00 | 0.00 | 95 | 986.5 |